Hourly Data Report for August 08, 2021

KUGLUKTUK A
NUNAVUT
Current Station Operator: NAVCAN

67°49'00.000" N
115°08'38.000" W
22.60 m
2300903
71938
YCO

Download Data

Hourly Data (August 2021)
Hourly Data Report for August 8, 2021
TIME
LST
Temp Definition
°C
Dew Point Definition
°C
Rel Hum Definition
%
Precip. Amount Definition
mm

Wind Dir Definition
10's deg

Wind Spd Definition
km/h
Visibility Definition
km
Stn Press Definition
kPa
Hmdx Definition


Wind Chill Definition


Weather Definition


00:00 4.4 1.7 83   30 31 24.1 100.34     LegendNANA
01:00 4.3 2.0 85   30 23 24.1 100.34     Rain
02:00 4.7 1.8 81   31 25 24.1 100.34     Cloudy
03:00 4.6 1.1 78   31 31 24.1 100.35     LegendNANA
04:00 4.2 0.9 79   30 23 24.1 100.36     LegendNANA
05:00 3.5 0.4 80   31 30 24.1 100.40     Mostly Cloudy
06:00 3.8 0.4 79   32 23 24.1 100.40     LegendNANA
07:00 4.0 0.5 78   28 19 24.1 100.38     LegendNANA
08:00 4.5 0.8 77   32 21 24.1 100.36     Mostly Cloudy
09:00 5.7 1.1 72   30 23 24.1 100.33     LegendNANA
10:00 6.7 1.5 70   31 24 24.1 100.32     LegendNANA
11:00 7.6 2.2 69   33 23 24.1 100.33     Mostly Cloudy
12:00 8.0 2.3 67   32 27 24.1 100.30     LegendNANA
13:00 8.9 2.5 64   32 28 24.1 100.28     LegendNANA
14:00 9.3 2.2 61   33 20 24.1 100.26     Mostly Cloudy
15:00 10.2 1.7 56   34 21 24.1 100.24     LegendNANA
16:00 9.3 1.6 58   34 13 24.1 100.25     LegendNANA
17:00 9.3 1.5 58   30 8 24.1 100.24     Mostly Cloudy
18:00 9.5 0.7 54   25 16 24.1 100.22     LegendNANA
19:00 8.3 1.8 63   27 8 24.1 100.21     LegendNANA
20:00 7.4 1.7 67   25 11 24.1 100.16     Mainly Clear
21:00 5.6 2.4 79   33 12 24.1 100.16     LegendNANA
22:00 6.2 2.5 77   3 14 24.1 100.14     LegendNANA
23:00 5.8 3.0 82   5 7 24.1 100.12     Cloudy

Notes on Data Quality.

Legend

  • E = Estimated
  • M = Missing
  • NA = Not Available*
  • [empty] = Indicates an unobserved value
Date modified: